Tracking 32139 objects as of 14-Nov-2025
HD Live streaming from Space Station
objects crossing your sky now

STARLINK-5827

Track STARLINK-5827 now!
10-day predictions
STARLINK-5827 is classified as:


NORAD ID: 57066
Int'l Code: 2023-088U
Perigee: 565.2 km
Apogee: 567.5 km
Inclination: 43.0 °
Period: 95.8 minutes
Semi major axis: 6937 km
RCS: Unknown
Launch date: June 22, 2023
Source: United States (US)
Launch site: AIR FORCE WESTERN TEST RANGE (AFWTR)
Your satellite tracking list
Your tracking list is empty




NASA's NSSDC Master Catalog

Two Line Element Set (TLE):
1 57066U 23088U   25317.55665766 -.00003938  00000-0 -27692-3 0  9993
2 57066  43.0054  18.2198 0001685 255.9206 104.1449 15.02494268131920
Source of the keplerian elements: AFSPC